timestamp,wind_dir_avg,wind_spd_avg,wind_spd_max_dir,wind_spd_gust,battery_voltage,lat,long
2020-12-11 00:04:01+00:00,57.0,6.56,53.0,8.09,12.57,47.59359,-54.27349
2020-12-11 00:14:01+00:00,54.0,4.93,58.0,6.0,12.49,47.59359,-54.27349
2020-12-11 00:24:01+00:00,43.0,7.0,43.0,7.99,12.49,47.59359,-54.27349
2020-12-11 00:34:01+00:00,62.0,7.62,61.0,8.88,12.49,47.59359,-54.27349
2020-12-11 00:44:01+00:00,52.0,8.47,48.0,9.26,12.49,47.59359,-54.27349
2020-12-11 00:54:01+00:00,46.0,7.96,41.0,9.18,12.49,47.59359,-54.27349
2020-12-11 01:04:01+00:00,52.0,8.25,55.0,9.0,12.49,47.59359,-54.27349
2020-12-11 01:14:01+00:00,54.0,7.6,55.0,8.3,12.49,47.59359,-54.27349
2020-12-11 01:24:01+00:00,48.0,9.22,47.0,10.43,12.49,47.59359,-54.27349
2020-12-11 01:34:01+00:00,44.0,8.82,52.0,10.0,12.49,47.59359,-54.27349
2020-12-11 01:44:01+00:00,43.0,8.91,40.0,9.73,12.49,47.59359,-54.27349
2020-12-11 01:54:01+00:00,37.0,10.19,38.0,10.94,12.49,47.59359,-54.27349
2020-12-11 02:04:01+00:00,43.0,9.67,43.0,10.17,12.49,47.59359,-54.27349
2020-12-11 02:14:01+00:00,36.0,10.11,35.0,11.47,12.49,47.59359,-54.27349
2020-12-11 02:24:01+00:00,44.0,9.28,38.0,10.42,12.49,47.59359,-54.27349
2020-12-11 02:34:01+00:00,42.0,8.92,40.0,10.43,12.49,47.59359,-54.27349
2020-12-11 02:44:01+00:00,41.0,10.48,36.0,13.25,12.49,47.59359,-54.27349
2020-12-11 02:54:01+00:00,49.0,10.23,49.0,11.43,12.49,47.59359,-54.27349
2020-12-11 03:04:01+00:00,43.0,9.37,37.0,11.3,12.49,47.59359,-54.27349
2020-12-11 03:14:01+00:00,57.0,9.5,55.0,11.08,12.41,47.59359,-54.27349
2020-12-11 03:24:01+00:00,58.0,9.59,64.0,10.94,12.41,47.59359,-54.27349
2020-12-11 03:34:01+00:00,47.0,9.16,42.0,10.52,12.41,47.59359,-54.27349
2020-12-11 03:44:01+00:00,45.0,9.06,35.0,10.99,12.41,47.59359,-54.27349
2020-12-11 03:54:01+00:00,37.0,9.95,37.0,11.3,12.41,47.59359,-54.27349
2020-12-11 04:04:01+00:00,40.0,9.86,35.0,11.27,12.41,47.59359,-54.27349
2020-12-11 04:14:01+00:00,44.0,8.99,40.0,10.45,12.41,47.59359,-54.27349
2020-12-11 04:24:01+00:00,38.0,9.97,40.0,11.24,12.41,47.59359,-54.27349
2020-12-11 04:34:01+00:00,39.0,9.22,43.0,10.73,12.41,47.59359,-54.27349
2020-12-11 04:44:01+00:00,34.0,9.51,31.0,11.09,12.41,47.59359,-54.27349
2020-12-11 04:54:01+00:00,39.0,10.72,34.0,11.88,12.41,47.59359,-54.27349
2020-12-11 05:04:01+00:00,32.0,9.91,33.0,11.26,12.41,47.59359,-54.27349
2020-12-11 05:14:01+00:00,26.0,9.53,21.0,10.48,12.41,47.59359,-54.27349
2020-12-11 05:24:01+00:00,32.0,9.82,33.0,11.16,12.41,47.59359,-54.27349
2020-12-11 05:34:01+00:00,28.0,9.48,28.0,11.11,12.41,47.59359,-54.27349
2020-12-11 05:44:01+00:00,28.0,9.6,34.0,10.66,12.41,47.59359,-54.27349
2020-12-11 05:54:01+00:00,30.0,8.83,26.0,10.04,12.41,47.59359,-54.27349
2020-12-11 06:04:01+00:00,27.0,9.37,25.0,10.77,12.41,47.59359,-54.27349
2020-12-11 06:14:01+00:00,30.0,9.86,30.0,10.87,12.41,47.59359,-54.27349
2020-12-11 06:24:01+00:00,30.0,8.49,33.0,9.43,12.41,47.59359,-54.27349
2020-12-11 06:34:01+00:00,27.0,8.65,25.0,10.19,12.41,47.59359,-54.27349
2020-12-11 06:44:01+00:00,33.0,9.91,35.0,10.95,12.41,47.59359,-54.27349
2020-12-11 06:54:01+00:00,30.0,9.38,31.0,10.84,12.41,47.59359,-54.27349
2020-12-11 07:04:01+00:00,14.0,8.95,20.0,10.04,12.41,47.59359,-54.27349
2020-12-11 07:14:01+00:00,22.0,9.09,24.0,10.48,12.41,47.59359,-54.27349
2020-12-11 07:24:01+00:00,16.0,8.62,14.0,9.47,12.41,47.59359,-54.27349
2020-12-11 07:34:01+00:00,20.0,8.07,12.0,9.2,12.41,47.59359,-54.27349
2020-12-11 07:44:01+00:00,16.0,8.49,16.0,9.74,12.41,47.59359,-54.27349
2020-12-11 07:54:01+00:00,19.0,8.26,19.0,10.12,12.41,47.59359,-54.27349
2020-12-11 08:04:01+00:00,24.0,8.1,32.0,9.83,12.41,47.59359,-54.27349
2020-12-11 08:14:01+00:00,18.0,8.85,13.0,10.6,12.41,47.59359,-54.27349
2020-12-11 08:24:01+00:00,20.0,9.35,19.0,10.69,12.41,47.59359,-54.27349
2020-12-11 08:34:01+00:00,21.0,8.03,22.0,9.31,12.41,47.59359,-54.27349
2020-12-11 08:44:01+00:00,20.0,8.36,23.0,9.17,12.41,47.59359,-54.27349
2020-12-11 08:54:01+00:00,26.0,8.82,26.0,10.07,12.41,47.59359,-54.27349
2020-12-11 09:04:01+00:00,29.0,8.5,24.0,9.52,12.41,47.59359,-54.27349
2020-12-11 09:14:01+00:00,22.0,9.61,26.0,10.9,12.41,47.59359,-54.27349
2020-12-11 09:24:01+00:00,28.0,9.46,33.0,10.45,12.41,47.59359,-54.27349
2020-12-11 09:34:01+00:00,22.0,9.14,29.0,10.04,12.41,47.59359,-54.27349
2020-12-11 09:44:01+00:00,20.0,9.73,21.0,11.1,12.41,47.59359,-54.27349
2020-12-11 09:54:01+00:00,8.0,7.94,10.0,10.14,12.41,47.59359,-54.27349
2020-12-11 10:04:01+00:00,15.0,8.25,20.0,9.77,12.41,47.59359,-54.27349
2020-12-11 10:14:01+00:00,5.0,8.37,4.0,9.51,12.33,47.59359,-54.27349
2020-12-11 10:24:01+00:00,1.0,8.23,1.0,8.99,12.33,47.59359,-54.27349
2020-12-11 10:34:01+00:00,7.0,8.49,4.0,10.03,12.33,47.59359,-54.27349
2020-12-11 10:44:01+00:00,12.0,9.24,17.0,10.63,12.33,47.59359,-54.27349
2020-12-11 10:54:01+00:00,7.0,9.37,13.0,11.12,12.33,47.59359,-54.27349
2020-12-11 11:04:01+00:00,9.0,8.49,3.0,9.7,12.33,47.59359,-54.27349
2020-12-11 11:14:01+00:00,4.0,8.91,0.0,10.39,12.33,47.59359,-54.27349
2020-12-11 11:24:01+00:00,4.0,10.14,1.0,11.77,12.33,47.59359,-54.27349
2020-12-11 11:34:01+00:00,1.0,9.7,5.0,10.46,12.33,47.59359,-54.27349
2020-12-11 11:44:01+00:00,5.0,9.19,1.0,11.42,12.33,47.59359,-54.27349
2020-12-11 11:54:01+00:00,4.0,9.67,4.0,11.6,12.33,47.59359,-54.27349
2020-12-11 12:04:01+00:00,358.0,9.95,348.0,11.57,12.33,47.59359,-54.27349
2020-12-11 12:14:01+00:00,356.0,10.26,358.0,11.52,12.41,47.59359,-54.27349
2020-12-11 12:24:01+00:00,356.0,8.65,352.0,9.76,12.41,47.59359,-54.27349
2020-12-11 12:34:01+00:00,0.0,9.21,1.0,10.73,12.41,47.59359,-54.27349
2020-12-11 12:44:01+00:00,354.0,10.61,358.0,12.29,12.41,47.59359,-54.27349
2020-12-11 12:54:01+00:00,351.0,10.07,350.0,11.28,12.41,47.59359,-54.27349
2020-12-11 13:04:01+00:00,354.0,11.08,352.0,12.85,12.41,47.59359,-54.27349
2020-12-11 13:14:01+00:00,347.0,9.97,346.0,11.76,12.81,47.59359,-54.27349
2020-12-11 13:24:01+00:00,346.0,10.58,350.0,12.35,12.81,47.59359,-54.27349
2020-12-11 13:34:01+00:00,353.0,8.99,350.0,10.91,12.81,47.59359,-54.27349
2020-12-11 13:44:01+00:00,354.0,9.38,354.0,10.45,12.81,47.59359,-54.27349
2020-12-11 13:54:01+00:00,358.0,9.72,356.0,11.44,12.81,47.59359,-54.27349
2020-12-11 14:04:01+00:00,350.0,10.41,352.0,11.98,12.81,47.59359,-54.27349
2020-12-11 14:14:01+00:00,353.0,10.99,352.0,12.03,13.53,47.59359,-54.27349
2020-12-11 14:24:01+00:00,358.0,10.28,349.0,11.36,13.53,47.59359,-54.27349
2020-12-11 14:34:01+00:00,356.0,10.31,356.0,12.02,13.53,47.59359,-54.27349
2020-12-11 14:44:01+00:00,348.0,10.01,349.0,11.16,13.53,47.59359,-54.27349
2020-12-11 14:54:01+00:00,346.0,9.62,346.0,10.7,13.53,47.59359,-54.27349
2020-12-11 15:04:01+00:00,348.0,9.88,352.0,10.77,13.53,47.59359,-54.27349
2020-12-11 16:14:01+00:00,339.0,9.86,336.0,12.2,13.68,47.59359,-54.27349
2020-12-11 16:24:01+00:00,350.0,11.28,350.0,13.99,13.68,47.59359,-54.27349
2020-12-11 16:34:01+00:00,341.0,10.35,343.0,12.27,13.68,47.59359,-54.27349
2020-12-11 16:44:01+00:00,341.0,9.65,340.0,11.36,13.68,47.59359,-54.27349
2020-12-11 16:54:01+00:00,341.0,9.51,336.0,10.5,13.68,47.59359,-54.27349
2020-12-11 17:04:01+00:00,350.0,9.75,354.0,11.18,13.68,47.59359,-54.27349
2020-12-11 17:14:01+00:00,341.0,11.11,348.0,13.54,13.84,47.59359,-54.27349
2020-12-11 17:24:01+00:00,350.0,8.86,347.0,10.57,13.84,47.59359,-54.27349
2020-12-11 17:34:01+00:00,341.0,9.2,339.0,10.76,13.84,47.59359,-54.27349
2020-12-11 17:44:01+00:00,340.0,8.7,343.0,10.81,13.84,47.59359,-54.27349
2020-12-11 17:54:01+00:00,333.0,9.61,330.0,11.53,13.84,47.59359,-54.27349
2020-12-11 18:04:01+00:00,339.0,10.91,338.0,12.5,13.84,47.59359,-54.27349
2020-12-11 18:14:01+00:00,334.0,9.37,333.0,10.63,13.6,47.59359,-54.27349
2020-12-11 18:24:01+00:00,330.0,8.84,328.0,10.0,13.6,47.59359,-54.27349
2020-12-11 18:34:01+00:00,328.0,9.06,325.0,10.6,13.6,47.59359,-54.27349
2020-12-11 18:44:01+00:00,329.0,9.3,333.0,10.62,13.6,47.59359,-54.27349
2020-12-11 18:54:01+00:00,330.0,10.67,329.0,11.56,13.6,47.59359,-54.27349
2020-12-11 19:04:01+00:00,330.0,10.98,334.0,13.09,13.6,47.59359,-54.27349
2020-12-11 19:14:01+00:00,328.0,11.56,329.0,13.16,13.44,47.59359,-54.27349
2020-12-11 19:24:01+00:00,331.0,10.37,331.0,11.67,13.44,47.59359,-54.27349
2020-12-11 19:34:01+00:00,332.0,7.94,333.0,9.62,13.44,47.59359,-54.27349
2020-12-11 19:44:01+00:00,325.0,11.0,327.0,12.32,13.44,47.59359,-54.27349
2020-12-11 19:54:01+00:00,328.0,8.84,333.0,10.82,13.44,47.59359,-54.27349
2020-12-11 20:04:01+00:00,322.0,9.55,328.0,11.74,13.44,47.59359,-54.27349
2020-12-11 20:14:01+00:00,323.0,9.9,324.0,11.24,12.81,47.59359,-54.27349
2020-12-11 20:24:01+00:00,322.0,9.63,327.0,11.53,12.81,47.59359,-54.27349
2020-12-11 20:34:01+00:00,324.0,9.44,326.0,10.45,12.81,47.59359,-54.27349
2020-12-11 20:44:01+00:00,331.0,8.81,332.0,10.02,12.81,47.59359,-54.27349
2020-12-11 20:54:01+00:00,325.0,9.52,324.0,10.86,12.81,47.59359,-54.27349
2020-12-11 21:04:01+00:00,324.0,8.89,322.0,9.92,12.81,47.59359,-54.27349
2020-12-11 21:14:01+00:00,338.0,8.28,340.0,9.24,12.65,47.59359,-54.27349
2020-12-11 21:24:01+00:00,323.0,8.08,328.0,9.24,12.65,47.59359,-54.27349
2020-12-11 21:34:01+00:00,316.0,6.88,321.0,8.56,12.65,47.59359,-54.27349
2020-12-11 21:44:01+00:00,317.0,8.11,325.0,9.11,12.65,47.59359,-54.27349
2020-12-11 21:54:01+00:00,312.0,7.29,316.0,8.8,12.65,47.59359,-54.27349
2020-12-11 22:04:01+00:00,324.0,8.28,327.0,9.51,12.65,47.59359,-54.27349
2020-12-11 22:14:01+00:00,315.0,7.7,316.0,8.91,12.57,47.59359,-54.27349
2020-12-11 22:24:01+00:00,315.0,8.28,304.0,9.76,12.57,47.59359,-54.27349
2020-12-11 22:34:01+00:00,305.0,7.91,306.0,9.47,12.57,47.59359,-54.27349
2020-12-11 22:44:01+00:00,309.0,7.04,305.0,8.11,12.57,47.59359,-54.27349
2020-12-11 22:54:01+00:00,317.0,7.35,321.0,8.46,12.57,47.59359,-54.27349
2020-12-11 23:04:01+00:00,320.0,6.51,325.0,7.34,12.57,47.59359,-54.27349
2020-12-11 23:14:01+00:00,330.0,6.47,331.0,7.39,12.49,47.59359,-54.27349
2020-12-11 23:24:01+00:00,327.0,6.95,323.0,7.78,12.49,47.59359,-54.27349
2020-12-11 23:34:01+00:00,320.0,7.23,318.0,8.73,12.49,47.59359,-54.27349
2020-12-11 23:44:01+00:00,324.0,8.43,323.0,9.41,12.49,47.59359,-54.27349
2020-12-11 23:54:01+00:00,325.0,8.47,326.0,10.04,12.49,47.59359,-54.27349
